THORAD DELTA 1 DEB, 8173

Orbit data source: Space-Track

THORAD DELTA 1 DEB, 8173 is space debris in SSO originally from a launch on Fri, 15 Nov 1974 UTC launched from the Air Force Western Test Range (AFWTR). Debris objects in space refer to the collection of defunct objects orbiting the Earth. Examples of debris include non-operational satellites, rocket bodies, and fragments generated from explosions, collisions, or faulty payload assembly.

Loading next visibility...
Identifier
8173, 1974-089AP
Orbit
SSO
Country
Flag of USUS
Related business
Manufacturer
Unknown
Mission
Spacecraft
Bus & Motor
Unknown
Mass
Unknown
Launch date (UTC)
1974-11-15 (51 years ago)
Launch vehicle
Unknown
Launch site
Air Force Western Test Range (AFWTR)
Object type
Payload
Rocket body
Debris
Shape & HBR
Unknown
Radar Cross Section
Small (<0.1 m²)

Expand to show TLE details & history
Last TLE update: 2 days ago

TLE from 2 days ago
0 THORAD DELTA 1 DEB
1 08173U 74089AP  25240.86926478 -.00000015  00000-0  20023-3 0  9997
2 08173 101.9562 216.6247 0109167 324.0048 107.7469 12.51832502318418
Epoch: 2025-08-28T20:51Z
TLE epoch observation values (Epoch: 2025-08-28T20:51:44.476Z)
Latitude
69.34472°
Longitude
-107.62192°
Altitude
1,495.583 km
Speed
7.11 km/s
True Right ascension
12h 10m 33s
True Declination
69° 14' 30"
Sunlit
Object was in daylight at epoch
Visualization orbit readout
Latitude
Unknown
Longitude
Unknown
Altitude
Unknown
Speed
Unknown
Apparent Right ascension
Unknown
Apparent Declination
Unknown
Sunlit
N/A
Visualization observer readout
Local Sidereal Time
22:55:07
Azimuth
Unknown
Elevation
Unknown
Doppler factor
Unknown
Orbital elements
Apogee altitude
1,539.901 km
Perigee altitude
1,368.89 km
Semi-major axis
7,832.533 km
Eccentricity
0.01092
Inclination
101.9562°
RAAN
216.6247°
Arg. of periapsis
324.0048°
True anomaly
108.93331°
Mean anomaly
107.7469°
Eccentric anomaly
108.34061°
Mean motion
3.13105 °/min
Orbital period
114.98 mins
BSTAR
0.00020023
Loading maneuver chart data...
Computing Atmospheric mass density...
Loading historical data...
Loading historical data...
Loading historical data...
Loading historical data...
Loading historical data...
Loading historical data...
Loading historical data...

Documentation

Showing up to 5 results
|